Time,TemperatureF,DewpointF,PressureIn,WindDirection,WindDirectionDegrees,WindSpeedMPH,WindSpeedGustMPH,Humidity,HourlyPrecipIn,Conditions,Clouds,dailyrainin,SolarRadiationWatts/m^2,SoftwareType,DateUTC
2013-09-02 00:01:00,67.0,54.0,-100.00,North,2,6.0,9.0,64,0.00,,,0.00,0.000000,,2013-09-02 07:01:00,
2013-09-02 00:11:00,67.0,54.0,-100.00,North,2,6.0,9.0,64,0.00,,,0.00,0.000000,,2013-09-02 07:11:00,
2013-09-02 00:21:00,67.0,54.0,-100.00,North,2,6.0,9.0,64,0.00,,,0.00,0.000000,,2013-09-02 07:21:00,
2013-09-02 00:52:00,65.0,53.0,-100.00,NNW,346,5.0,11.0,65,0.00,,,-99.99,0.000000,,2013-09-02 07:52:00,
2013-09-02 01:02:00,65.0,53.0,-100.00,NNW,346,5.0,11.0,65,0.00,,,-99.99,0.000000,,2013-09-02 08:02:00,
2013-09-02 01:11:00,65.0,53.0,-100.00,NNW,346,5.0,11.0,65,0.00,,,-99.99,0.000000,,2013-09-02 08:11:00,
2013-09-02 01:22:00,65.0,53.0,-100.00,NNW,346,5.0,11.0,65,0.00,,,-99.99,0.000000,,2013-09-02 08:22:00,
2013-09-02 01:52:00,66.0,55.0,-100.00,North,357,6.0,10.0,68,0.00,,,0.00,0.000000,,2013-09-02 08:52:00,
2013-09-02 02:01:00,66.0,55.0,-100.00,North,357,6.0,10.0,68,0.00,,,0.00,0.000000,,2013-09-02 09:01:00,
2013-09-02 02:12:00,66.0,55.0,-100.00,North,357,6.0,10.0,68,0.00,,,0.00,0.000000,,2013-09-02 09:12:00,
2013-09-02 02:22:00,66.0,55.0,-100.00,North,357,6.0,10.0,68,0.00,,,0.00,0.000000,,2013-09-02 09:22:00,
2013-09-02 02:53:00,65.0,54.0,-100.00,NNE,15,7.0,11.0,68,0.00,,,0.00,0.000000,,2013-09-02 09:53:00,
2013-09-02 03:03:00,65.0,54.0,-100.00,NNE,15,7.0,11.0,68,0.00,,,0.00,0.000000,,2013-09-02 10:03:00,
2013-09-02 03:13:00,65.0,54.0,-100.00,NNE,15,7.0,11.0,68,0.00,,,0.00,0.000000,,2013-09-02 10:13:00,
2013-09-02 03:22:00,65.0,54.0,-100.00,NNE,15,7.0,11.0,68,0.00,,,0.00,0.000000,,2013-09-02 10:22:00,
2013-09-02 03:53:00,66.0,53.0,-100.00,NW,319,7.0,11.0,64,0.00,,,0.00,0.000000,,2013-09-02 10:53:00,
2013-09-02 04:03:00,66.0,53.0,-100.00,NW,319,7.0,11.0,64,0.00,,,0.00,0.000000,,2013-09-02 11:03:00,
2013-09-02 04:11:00,66.0,53.0,-100.00,NW,319,7.0,11.0,64,0.00,,,0.00,0.000000,,2013-09-02 11:11:00,
2013-09-02 04:22:00,66.0,53.0,-100.00,NW,319,7.0,11.0,64,0.00,,,0.00,0.000000,,2013-09-02 11:22:00,
2013-09-02 04:52:00,66.0,53.0,-100.00,South,170,8.0,11.0,64,0.00,,,0.00,0.000000,,2013-09-02 11:52:00,
2013-09-02 05:02:00,66.0,53.0,-100.00,South,170,8.0,11.0,64,0.00,,,0.00,0.000000,,2013-09-02 12:02:00,
2013-09-02 05:12:00,66.0,53.0,-100.00,South,170,8.0,11.0,64,0.00,,,0.00,0.000000,,2013-09-02 12:12:00,
2013-09-02 05:21:00,66.0,53.0,-100.00,South,170,8.0,11.0,64,0.00,,,0.00,0.000000,,2013-09-02 12:21:00,
2013-09-02 05:52:00,64.0,52.0,-100.00,East,99,6.0,11.0,66,0.00,,,0.00,0.000000,,2013-09-02 12:52:00,
2013-09-02 06:02:00,64.0,52.0,-100.00,East,99,6.0,11.0,66,0.00,,,0.00,0.000000,,2013-09-02 13:02:00,
2013-09-02 06:11:00,64.0,52.0,-100.00,East,99,6.0,11.0,66,0.00,,,0.00,0.000000,,2013-09-02 13:11:00,
2013-09-02 06:21:00,64.0,52.0,-100.00,East,99,6.0,11.0,66,0.00,,,0.00,0.000000,,2013-09-02 13:21:00,
2013-09-02 06:52:00,63.0,52.0,-100.00,NW,321,6.0,11.0,67,0.00,,,0.00,0.000000,,2013-09-02 13:52:00,
2013-09-02 07:02:00,63.0,52.0,-100.00,NW,321,6.0,11.0,67,0.00,,,0.00,0.000000,,2013-09-02 14:02:00,
2013-09-02 07:11:00,63.0,52.0,-100.00,NW,321,6.0,11.0,67,0.00,,,0.00,0.000000,,2013-09-02 14:11:00,
2013-09-02 07:22:00,63.0,52.0,-100.00,NW,321,6.0,11.0,67,0.00,,,0.00,0.000000,,2013-09-02 14:22:00,
2013-09-02 07:52:00,69.0,55.0,-100.00,North,354,5.0,11.0,60,0.00,,,0.00,89.000000,,2013-09-02 14:52:00,
2013-09-02 08:02:00,69.0,55.0,-100.00,North,354,5.0,11.0,60,0.00,,,0.00,89.000000,,2013-09-02 15:02:00,
2013-09-02 08:12:00,69.0,55.0,-100.00,North,354,5.0,11.0,60,0.00,,,0.00,89.000000,,2013-09-02 15:12:00,
2013-09-02 08:22:00,69.0,55.0,-100.00,North,354,5.0,11.0,60,0.00,,,0.00,89.000000,,2013-09-02 15:22:00,
2013-09-02 08:55:00,75.0,53.0,-100.00,NW,323,6.0,11.0,47,0.00,,,0.00,353.000000,,2013-09-02 15:55:00,
2013-09-02 09:04:00,75.0,53.0,-100.00,NW,323,6.0,11.0,47,0.00,,,0.00,353.000000,,2013-09-02 16:04:00,
2013-09-02 09:14:00,75.0,53.0,-100.00,NW,323,6.0,11.0,47,0.00,,,0.00,353.000000,,2013-09-02 16:14:00,
2013-09-02 09:24:00,75.0,53.0,-100.00,NW,323,6.0,11.0,47,0.00,,,0.00,353.000000,,2013-09-02 16:24:00,
2013-09-02 09:53:00,78.0,52.0,-100.00,East,99,6.0,12.0,41,0.00,,,0.00,516.000000,,2013-09-02 16:53:00,
2013-09-02 10:03:00,78.0,52.0,-100.00,East,99,6.0,12.0,41,0.00,,,0.00,516.000000,,2013-09-02 17:03:00,
2013-09-02 10:12:00,78.0,52.0,-100.00,East,99,6.0,12.0,41,0.00,,,0.00,516.000000,,2013-09-02 17:12:00,
2013-09-02 10:23:00,78.0,52.0,-100.00,East,99,6.0,12.0,41,0.00,,,0.00,516.000000,,2013-09-02 17:23:00,
2013-09-02 10:52:00,84.0,46.0,-100.00,ESE,111,5.0,15.0,27,0.00,,,0.00,719.000000,,2013-09-02 17:52:00,
2013-09-02 11:02:00,84.0,46.0,-100.00,ESE,111,5.0,15.0,27,0.00,,,0.00,719.000000,,2013-09-02 18:02:00,
2013-09-02 11:13:00,84.0,46.0,-100.00,ESE,111,5.0,15.0,27,0.00,,,0.00,719.000000,,2013-09-02 18:13:00,
2013-09-02 11:22:00,84.0,46.0,-100.00,ESE,111,5.0,15.0,27,0.00,,,0.00,719.000000,,2013-09-02 18:22:00,
2013-09-02 11:52:00,85.0,45.0,-100.00,SE,129,8.0,16.0,25,0.00,,,0.00,883.000000,,2013-09-02 18:52:00,
2013-09-02 12:02:00,85.0,45.0,-100.00,SE,129,8.0,16.0,25,0.00,,,0.00,883.000000,,2013-09-02 19:02:00,
2013-09-02 12:12:00,85.0,45.0,-100.00,SE,129,8.0,16.0,25,0.00,,,0.00,883.000000,,2013-09-02 19:12:00,
2013-09-02 12:22:00,85.0,45.0,-100.00,SE,129,8.0,16.0,25,0.00,,,0.00,883.000000,,2013-09-02 19:22:00,
2013-09-02 12:52:00,87.0,45.0,-100.00,SE,131,11.0,19.0,23,0.00,,,0.00,995.000000,,2013-09-02 19:52:00,
2013-09-02 13:02:00,87.0,45.0,-100.00,SE,131,11.0,19.0,23,0.00,,,0.00,995.000000,,2013-09-02 20:02:00,
2013-09-02 13:12:00,87.0,45.0,-100.00,SE,131,11.0,19.0,23,0.00,,,0.00,995.000000,,2013-09-02 20:12:00,
2013-09-02 13:22:00,87.0,45.0,-100.00,SE,131,11.0,19.0,23,0.00,,,0.00,995.000000,,2013-09-02 20:22:00,
2013-09-02 13:52:00,87.0,42.0,-100.00,ESE,109,12.0,23.0,21,0.00,,,0.00,1058.000000,,2013-09-02 20:52:00,
2013-09-02 14:02:00,87.0,42.0,-100.00,ESE,109,12.0,23.0,21,0.00,,,0.00,1058.000000,,2013-09-02 21:02:00,
2013-09-02 14:12:00,87.0,42.0,-100.00,ESE,109,12.0,23.0,21,0.00,,,0.00,1058.000000,,2013-09-02 21:12:00,
2013-09-02 14:23:00,87.0,42.0,-100.00,ESE,109,12.0,23.0,21,0.00,,,0.00,1058.000000,,2013-09-02 21:23:00,
2013-09-02 14:55:00,86.0,40.0,-100.00,ESE,112,9.0,20.0,20,0.00,,,0.00,685.000000,,2013-09-02 21:55:00,
2013-09-02 15:04:00,86.0,40.0,-100.00,ESE,112,9.0,20.0,20,0.00,,,0.00,685.000000,,2013-09-02 22:04:00,
2013-09-02 15:13:00,86.0,40.0,-100.00,ESE,112,9.0,20.0,20,0.00,,,0.00,685.000000,,2013-09-02 22:13:00,
2013-09-02 15:23:00,86.0,40.0,-100.00,ESE,112,9.0,20.0,20,0.00,,,0.00,685.000000,,2013-09-02 22:23:00,
2013-09-02 15:54:00,87.0,38.0,-100.00,ESE,119,12.0,25.0,18,0.00,,,0.00,788.000000,,2013-09-02 22:54:00,
2013-09-02 16:03:00,87.0,38.0,-100.00,ESE,119,12.0,25.0,18,0.00,,,0.00,788.000000,,2013-09-02 23:03:00,
2013-09-02 16:12:00,87.0,38.0,-100.00,ESE,119,12.0,25.0,18,0.00,,,0.00,788.000000,,2013-09-02 23:12:00,
2013-09-02 16:22:00,87.0,38.0,-100.00,ESE,119,12.0,25.0,18,0.00,,,0.00,788.000000,,2013-09-02 23:22:00,
2013-09-02 16:53:00,84.0,39.0,-100.00,ESE,104,13.0,25.0,20,0.00,,,0.00,452.000000,,2013-09-02 23:53:00,
2013-09-02 17:01:00,84.0,39.0,-100.00,ESE,104,13.0,25.0,20,0.00,,,0.00,452.000000,,2013-09-03 00:01:00,
2013-09-02 17:11:00,84.0,39.0,-100.00,ESE,104,13.0,25.0,20,0.00,,,0.00,452.000000,,2013-09-03 00:11:00,
2013-09-02 17:21:00,84.0,39.0,-100.00,ESE,104,13.0,25.0,20,0.00,,,0.00,452.000000,,2013-09-03 00:21:00,
2013-09-02 17:52:00,81.0,44.0,-100.00,SW,232,9.0,16.0,27,0.00,,,0.00,286.000000,,2013-09-03 00:52:00,
2013-09-02 18:01:00,81.0,44.0,-100.00,SW,232,9.0,16.0,27,0.00,,,0.00,286.000000,,2013-09-03 01:01:00,
2013-09-02 18:11:00,81.0,44.0,-100.00,SW,232,9.0,16.0,27,0.00,,,0.00,286.000000,,2013-09-03 01:11:00,
2013-09-02 18:21:00,81.0,44.0,-100.00,SW,232,9.0,16.0,27,0.00,,,0.00,286.000000,,2013-09-03 01:21:00,
2013-09-02 18:52:00,77.0,46.0,-100.00,SE,134,9.0,17.0,33,0.00,,,0.00,109.000000,,2013-09-03 01:52:00,
2013-09-02 19:02:00,77.0,46.0,-100.00,SE,134,9.0,17.0,33,0.00,,,0.00,109.000000,,2013-09-03 02:02:00,
2013-09-02 19:12:00,77.0,46.0,-100.00,SE,134,9.0,17.0,33,0.00,,,0.00,109.000000,,2013-09-03 02:12:00,
2013-09-02 19:21:00,77.0,46.0,-100.00,SE,134,9.0,17.0,33,0.00,,,0.00,109.000000,,2013-09-03 02:21:00,
2013-09-02 19:52:00,74.0,47.0,-100.00,West,267,8.0,15.0,38,0.00,,,0.00,30.000000,,2013-09-03 02:52:00,
2013-09-02 20:02:00,74.0,47.0,-100.00,West,267,8.0,15.0,38,0.00,,,0.00,30.000000,,2013-09-03 03:02:00,
2013-09-02 20:11:00,74.0,47.0,-100.00,West,267,8.0,15.0,38,0.00,,,0.00,30.000000,,2013-09-03 03:11:00,
2013-09-02 20:23:00,74.0,47.0,-100.00,West,267,8.0,15.0,38,0.00,,,0.00,30.000000,,2013-09-03 03:23:00,
2013-09-02 20:55:00,72.0,48.0,-100.00,NNE,32,5.0,13.0,43,0.00,,,0.00,0.000000,,2013-09-03 03:55:00,
2013-09-02 21:04:00,72.0,48.0,-100.00,NNE,32,5.0,13.0,43,0.00,,,0.00,0.000000,,2013-09-03 04:04:00,
2013-09-02 21:13:00,72.0,48.0,-100.00,NNE,32,5.0,13.0,43,0.00,,,0.00,0.000000,,2013-09-03 04:13:00,
2013-09-02 21:24:00,72.0,48.0,-100.00,NNE,32,5.0,13.0,43,0.00,,,0.00,0.000000,,2013-09-03 04:24:00,
2013-09-02 21:53:00,69.0,48.0,-100.00,East,93,2.0,9.0,48,0.00,,,0.00,0.000000,,2013-09-03 04:53:00,
2013-09-02 22:03:00,69.0,48.0,-100.00,East,93,2.0,9.0,48,0.00,,,0.00,0.000000,,2013-09-03 05:03:00,
2013-09-02 22:12:00,69.0,48.0,-100.00,East,93,2.0,9.0,48,0.00,,,0.00,0.000000,,2013-09-03 05:12:00,
2013-09-02 22:23:00,69.0,48.0,-100.00,East,93,2.0,9.0,48,0.00,,,0.00,0.000000,,2013-09-03 05:23:00,
2013-09-02 22:52:00,70.0,50.0,-100.00,North,3,4.0,8.0,50,0.00,,,0.00,0.000000,,2013-09-03 05:52:00,
2013-09-02 23:02:00,70.0,50.0,-100.00,North,3,4.0,8.0,50,0.00,,,0.00,0.000000,,2013-09-03 06:02:00,
2013-09-02 23:12:00,70.0,50.0,-100.00,North,3,4.0,8.0,50,0.00,,,0.00,0.000000,,2013-09-03 06:12:00,
2013-09-02 23:22:00,70.0,50.0,-100.00,North,3,4.0,8.0,50,0.00,,,0.00,0.000000,,2013-09-03 06:22:00,
2013-09-02 23:52:00,69.0,51.0,-100.00,SW,236,5.0,10.0,53,0.00,,,0.00,0.000000,,2013-09-03 06:52:00,